FW4831 Weather Reports


time (UTC)temp
F
wind
direction
speed
knots
gust
knots
rain 1hr
in
rain 24hr
in
rain mn
in
humidity
%
barometer
mb
20260505100811 66 0 3.5 9.6 0.00 0.00 0.00 75 1005.6
20260505100310 66 7 3.5 9.6 0.00 0.00 0.00 74 1005.5
20260505095810 66 334 3.5 9.6 0.00 0.00 0.00 73 1005.6
20260505095311 67 4 3.5 9.6 0.00 0.00 0.00 72 1005.7
20260505094809 67 331 3.5 14.8 0.00 0.00 0.00 72 1005.8
20260505094626 67 0 3.5 14.8 0.00 0.00 0.00 72 1005.7
20260505093812 67 1 7.0 14.8 0.00 0.00 0.00 71 1005.6
20260505093644 67 28 4.3 10.4 0.00 0.00 0.00 71 1005.4
20260505092809 67 317 5.2 10.4 0.00 0.00 0.00 71 1005.2
20260505092310 67 314 3.5 14.8 0.00 0.00 0.00 70 1005.3
20260505091810 67 327 5.2 14.8 0.00 0.00 0.00 70 1005.6
20260505091311 67 16 3.5 11.3 0.00 0.00 0.00 70 1005.4
20260505090810 67 347 3.5 11.3 0.00 0.00 0.00 69 1005.4
20260505090309 67 0 3.5 10.4 0.00 0.00 0.00 69 1005.2
20260505090136 67 345 3.5 8.7 0.00 0.00 0.00 69 1005.1
20260505085629 67 309 1.7 8.7 0.00 0.00 0.00 68 1005.0
20260505084809 67 338 3.5 13.0 0.00 0.00 0.00 69 1005.4
20260505084309 67 313 6.1 13.0 0.00 0.00 0.00 68 1005.1
20260505083810 67 327 3.5 9.6 0.00 0.00 0.00 68 1005.1
20260505083311 67 314 4.3 10.4 0.00 0.00 0.00 67 1005.1
20260505082809 67 358 3.5 10.4 0.00 0.00 0.00 67 1005.3
20260505082632 67 317 5.2 11.3 0.00 0.00 0.00 67 1005.3
20260505081810 67 4 3.5 11.3 0.00 0.00 0.00 66 1005.4
20260505081311 67 312 4.3 12.2 0.00 0.00 0.00 66 1005.6
20260505080811 67 86 5.2 12.2 0.00 0.00 0.00 67 1005.5
20260505080311 67 354 3.5 9.6 0.00 0.00 0.00 67 1005.7
20260505075810 67 330 1.7 6.1 0.00 0.00 0.00 66 1005.7
20260505075311 67 0 3.5 6.1 0.00 0.00 0.00 66 1005.7
20260505074811 67 0 0.9 8.7 0.00 0.00 0.00 66 1005.9
20260505074628 66 333 2.6 8.7 0.00 0.00 0.00 67 1005.9
20260505073810 66 1 3.5 7.8 0.00 0.00 0.00 66 1006.1
20260505073310 67 353 2.6 8.7 0.00 0.00 0.00 66 1006.1
20260505072810 67 338 3.5 9.6 0.00 0.00 0.00 66 1006.0
20260505072310 66 331 4.3 9.6 0.00 0.00 0.00 66 1006.0
20260505071811 66 343 2.6 8.7 0.00 0.00 0.00 67 1006.1
20260505071453 66 336 4.3 8.7 0.00 0.00 0.00 65 1006.2
20260505071415 66 344 1.7 8.7 0.00 0.00 0.00 65 1006.0
20260505070310 66 324 1.7 7.8 0.00 0.00 0.00 65 1006.3
20260505065811 66 350 3.5 7.8 0.00 0.00 0.00 65 1006.2
20260505065458 66 292 1.7 5.2 0.00 0.00 0.00 65 1006.4
20260505065418 66 347 1.7 5.2 0.00 0.00 0.00 65 1006.3
20260505064310 66 241 0.9 2.6 0.00 0.00 0.00 65 1006.5
20260505063810 66 290 0.0 3.5 0.00 0.00 0.00 64 1006.6
20260505063309 67 306 0.9 3.5 0.00 0.00 0.00 64 1006.7
20260505062813 67 312 1.7 5.2 0.00 0.00 0.00 64 1006.8
20260505062310 67 324 2.6 5.2 0.00 0.00 0.00 64 1006.7
20260505061810 67 307 1.7 4.3 0.00 0.00 0.00 64 1006.8
20260505061309 67 334 1.7 3.5 0.00 0.00 0.00 64 1007.0
20260505060811 67 279 1.7 4.3 0.00 0.00 0.00 64 1007.2
20260505060323 67 344 0.9 4.3 0.00 0.00 0.00 64 1007.3
20260505055810 67 317 0.9 4.3 0.00 0.00 0.00 64 1007.4
20260505055309 67 299 1.7 4.3 0.00 0.00 0.00 64 1007.3
20260505054812 67 245 0.9 2.6 0.00 0.00 0.00 64 1007.4
20260505054309 67 168 0.0 2.6 0.00 0.00 0.00 64 1007.5
20260505053809 67 305 0.9 4.3 0.00 0.00 0.00 63 1007.6
20260505053316 67 289 0.9 4.3 0.00 0.00 0.00 63 1007.6
20260505053002 68 292 0.0 4.3 0.00 0.00 0.00 62 1007.6
20260505052915 68 305 0.9 4.3 0.00 0.00 0.00 62 1007.7
20260505052138 68 251 2.6 4.3 0.00 0.00 0.00 62 1007.7
20260505051310 68 276 0.9 4.3 0.00 0.00 0.00 62 1007.7
20260505050811 68 358 0.9 4.3 0.00 0.00 0.00 62 1007.6
20260505050309 68 348 0.9 2.6 0.00 0.00 0.00 62 1007.6
20260505041310 69 149 0.0 2.6 0.00 0.00 0.00 60 1007.9
20260505040810 69 199 0.9 3.5 0.00 0.00 0.00 60 1007.9
20260505040306 69 206 1.7 3.5 0.00 0.00 0.00 59 1007.9
20260505035804 69 221 1.7 2.6 0.00 0.00 0.00 60 1007.9
20260505035624 70 206 0.0 3.5 0.00 0.00 0.00 59 1008.1
20260505034801 70 248 1.7 3.5 0.00 0.00 0.00 59 1007.8
20260505034302 70 258 0.9 2.6 0.00 0.00 0.00 59 1007.9
20260505033800 70 247 0.0 2.6 0.00 0.00 0.00 59 1007.8
20260505033300 70 312 1.7 2.6 0.00 0.00 0.00 59 1007.9
20260505032758 70 309 1.7 2.6 0.00 0.00 0.00 59 1007.8
20260505032442 70 321 1.7 4.3 0.00 0.00 0.00 58 1008.1
20260505032400 70 268 0.0 2.6 0.00 0.00 0.00 59 1007.9
20260505031254 70 266 1.7 4.3 0.00 0.00 0.00 59 1007.9
20260505030753 70 302 0.9 3.5 0.00 0.00 0.00 59 1007.8
20260505030253 70 303 1.7 3.5 0.00 0.00 0.00 59 1007.7
20260505025750 70 3 1.7 5.2 0.00 0.00 0.00 59 1007.7
20260505025249 70 316 2.6 5.2 0.00 0.00 0.00 59 1007.5
20260505024751 70 336 2.6 4.3 0.00 0.00 0.00 58 1007.6
20260505024248 70 353 2.6 5.2 0.00 0.00 0.00 59 1007.6
20260505023748 70 333 1.7 5.2 0.00 0.00 0.00 58 1007.5
20260505023248 71 317 2.6 5.2 0.00 0.00 0.00 58 1007.5
20260505022746 71 326 2.6 5.2 0.00 0.00 0.00 58 1007.3
20260505022613 71 0 2.6 10.4 0.00 0.00 0.00 58 1007.4
20260505021744 71 353 3.5 10.4 0.00 0.00 0.00 57 1007.3
20260505021242 71 324 3.5 10.4 0.00 0.00 0.00 57 1007.2
20260505020743 71 0 3.5 6.1 0.00 0.00 0.00 59 1007.2
20260505020603 71 1 3.5 8.7 0.00 0.00 0.00 58 1007.0
20260505015740 71 27 3.5 8.7 0.00 0.00 0.00 57 1007.0
20260505015239 71 348 2.6 4.3 0.00 0.00 0.00 57 1007.0
20260505014739 71 348 2.6 5.2 0.00 0.00 0.00 57 1006.9
20260505014604 72 358 2.6 6.1 0.00 0.00 0.00 57 1006.9
20260505014100 72 27 2.6 6.1 0.00 0.00 0.00 57 1006.6
20260505013234 72 8 3.5 6.1 0.00 0.00 0.00 58 1006.7
20260505013116 72 17 2.6 5.2 0.00 0.00 0.00 58 1006.7
20260505012231 72 358 2.6 5.2 0.00 0.00 0.00 57 1006.7
20260505012051 72 358 3.5 5.2 0.00 0.00 0.00 56 1006.6
20260505011230 72 320 1.7 4.3 0.00 0.00 0.00 57 1006.6
20260505010731 73 338 1.7 4.3 0.00 0.00 0.00 56 1006.5
20260505010233 73 1 0.9 4.3 0.00 0.00 0.00 54 1006.3
20260505005727 73 309 1.7 3.5 0.00 0.00 0.00 54 1006.3
20260505005223 74 323 1.7 4.3 0.00 0.00 0.00 54 1006.3
20260505004723 74 348 1.7 4.3 0.00 0.00 0.00 54 1006.4
20260505004221 74 337 1.7 4.3 0.00 0.00 0.00 53 1006.4
20260505004039 74 1 1.7 5.2 0.00 0.00 0.00 53 1006.5
20260505003537 74 313 1.7 8.7 0.00 0.00 0.00 53 1006.4
20260505002714 75 69 2.6 8.7 0.00 0.00 0.00 53 1006.4
20260505002214 75 25 1.7 4.3 0.00 0.00 0.00 52 1006.5
20260505001713 75 18 2.6 6.1 0.00 0.00 0.00 52 1006.5
20260505001213 75 16 2.6 6.1 0.00 0.00 0.00 52 1006.6
20260505000711 75 11 2.6 7.8 0.00 0.00 0.00 51 1006.5
20260505000211 76 324 3.5 7.8 0.00 0.00 0.00 50 1006.6
20260504235708 76 307 3.5 6.1 0.00 0.00 0.00 50 1006.5
20260504235208 76 333 3.5 7.8 0.00 0.00 0.00 50 1006.5
20260504234708 76 310 4.3 7.8 0.00 0.00 0.00 49 1006.5
20260504234209 76 0 3.5 6.1 0.00 0.00 0.00 49 1006.6
20260504234037 76 334 4.3 12.2 0.00 0.00 0.00 48 1006.7
20260504233209 76 314 5.2 12.2 0.00 0.00 0.00 49 1006.7
20260504232711 77 1 5.2 12.2 0.00 0.00 0.00 48 1006.8
20260504232210 77 354 4.3 10.4 0.00 0.00 0.00 48 1006.8
20260504231709 77 0 3.5 8.7 0.00 0.00 0.00 49 1006.9
20260504231212 77 333 3.5 8.7 0.00 0.00 0.00 49 1006.9
20260504230708 77 302 3.5 8.7 0.00 0.00 0.00 47 1007.0
20260504230210 78 327 3.5 14.8 0.00 0.00 0.00 47 1007.0
20260504225709 78 351 7.0 14.8 0.00 0.00 0.00 45 1007.0
20260504225211 78 343 6.1 13.0 0.00 0.00 0.00 46 1007.0
20260504224709 78 275 4.3 13.0 0.00 0.00 0.00 46 1007.0
20260504224531 78 334 6.1 13.0 0.00 0.00 0.00 45 1006.9
20260504223710 78 207 5.2 14.8 0.00 0.00 0.00 46 1006.9
20260504223209 79 0 5.2 14.8 0.00 0.00 0.00 45 1006.9
20260504223048 79 25 8.7 13.9 0.00 0.00 0.00 45 1006.9
20260504222209 79 117 5.2 16.5 0.00 0.00 0.00 45 1006.9
20260504221711 79 18 6.1 16.5 0.00 0.00 0.00 44 1006.9
20260504221210 79 307 7.0 14.8 0.00 0.00 0.00 44 1007.0
20260504220709 79 0 7.8 17.4 0.00 0.00 0.00 44 1006.9
20260504220210 79 334 8.7 17.4 0.00 0.00 0.00 43 1006.9
20260504215709 80 4 9.6 14.8 0.00 0.00 0.00 44 1007.0
20260504215208 80 336 6.1 14.8 0.00 0.00 0.00 44 1007.1
20260504215028 80 7 6.1 12.2 0.00 0.00 0.00 45 1007.1
20260504214208 80 90 5.2 15.6 0.00 0.00 0.00 44 1007.1
20260504214032 80 305 7.0 15.6 0.00 0.00 0.00 44 1007.1
20260504213211 80 0 5.2 17.4 0.00 0.00 0.00 44 1007.2
20260504213051 80 25 7.8 17.4 0.00 0.00 0.00 44 1007.1
20260504212211 80 6 5.2 13.9 0.00 0.00 0.00 44 1007.1
20260504211708 80 347 7.0 16.5 0.00 0.00 0.00 45 1007.2
20260504211209 80 0 7.0 16.5 0.00 0.00 0.00 44 1007.3
20260504210709 80 0 6.1 16.5 0.00 0.00 0.00 43 1007.3
20260504210208 80 338 7.8 16.5 0.00 0.00 0.00 44 1007.4
20260504205715 80 0 7.0 14.8 0.00 0.00 0.00 44 1007.5
20260504205209 80 8 7.0 16.5 0.00 0.00 0.00 44 1007.5
20260504204709 80 293 7.0 16.5 0.00 0.00 0.00 44 1007.5
20260504204209 80 0 7.0 14.8 0.00 0.00 0.00 44 1007.6
20260504204028 80 10 9.6 16.5 0.00 0.00 0.00 43 1007.7
20260504203208 80 343 8.7 16.5 0.00 0.00 0.00 43 1007.8
20260504202710 80 337 7.8 18.2 0.00 0.00 0.00 43 1007.8
20260504202209 80 358 7.8 18.2 0.00 0.00 0.00 43 1007.8
20260504201708 80 13 8.7 15.6 0.00 0.00 0.00 44 1007.9
20260504201210 80 6 5.2 16.5 0.00 0.00 0.00 43 1008.1
20260504200709 80 17 7.0 18.2 0.00 0.00 0.00 43 1008.2
20260504200209 80 338 9.6 18.2 0.00 0.00 0.00 43 1008.3
20260504195710 80 4 11.3 18.2 0.00 0.00 0.00 42 1008.3
20260504195209 80 0 7.0 14.8 0.00 0.00 0.00 43 1008.4
20260504194854 80 0 7.8 13.9 0.00 0.00 0.00 43 1008.6
20260504194817 80 319 7.8 14.8 0.00 0.00 0.00 42 1008.3
20260504193708 81 309 7.8 13.9 0.00 0.00 0.00 43 1008.6
20260504193211 81 326 5.2 14.8 0.00 0.00 0.00 42 1008.6
20260504192709 80 268 7.8 14.8 0.00 0.00 0.00 42 1008.5
20260504192210 80 357 6.1 14.8 0.00 0.00 0.00 43 1008.6
20260504191711 80 341 8.7 16.5 0.00 0.00 0.00 43 1008.6
20260504191209 80 330 8.7 17.4 0.00 0.00 0.00 44 1008.8
20260504190710 80 355 9.6 17.4 0.00 0.00 0.00 42 1008.7
20260504190211 80 334 7.0 16.5 0.00 0.00 0.00 43 1008.9
20260504185710 80 1 5.2 16.5 0.00 0.00 0.00 43 1008.9
20260504185210 80 337 9.6 15.6 0.00 0.00 0.00 42 1008.8
20260504184721 79 0 10.4 16.5 0.00 0.00 0.00 45 1009.0
20260504184715 80 357 7.0 16.5 0.00 0.00 0.00 44 1009.0
20260504184710 80 321 7.8 14.8 0.00 0.00 0.00 43 1009.0
20260504183210 80 1 8.7 13.9 0.00 0.00 0.00 44 1009.1
20260504182710 80 0 6.1 15.6 0.00 0.00 0.00 45 1009.1
20260504182208 79 1 7.0 15.6 0.00 0.00 0.00 44 1009.2
20260504181708 80 321 7.0 14.8 0.00 0.00 0.00 44 1009.2
20260504181210 79 347 6.1 14.8 0.00 0.00 0.00 43 1009.3
20260504180708 79 348 8.7 16.5 0.00 0.00 0.00 45 1009.2
20260504180208 79 329 9.6 18.2 0.00 0.00 0.00 43 1009.4
20260504175709 79 355 8.7 18.2 0.00 0.00 0.00 44 1009.6
20260504175204 78 333 8.7 18.2 0.00 0.00 0.00 43 1009.6
20260504174704 79 321 7.8 13.9 0.00 0.00 0.00 43 1009.8
20260504174204 79 4 6.1 13.0 0.00 0.00 0.00 44 1009.7
20260504173701 78 312 7.8 20.9 0.00 0.00 0.00 43 1009.9
20260504173204 78 330 7.0 20.9 0.00 0.00 0.00 45 1010.0
20260504173019 78 265 7.0 15.6 0.00 0.00 0.00 44 1010.0
20260504172201 78 0 8.7 17.4 0.00 0.00 0.00 43 1009.9
20260504171702 78 334 6.1 17.4 0.00 0.00 0.00 46 1010.1
20260504171201 78 292 5.2 13.9 0.00 0.00 0.00 46 1010.3
20260504170701 77 302 6.1 18.2 0.00 0.00 0.00 45 1010.3
20260504170202 77 357 7.8 18.2 0.00 0.00 0.00 44 1010.3
20260504160139 76 262 4.3 12.2 0.00 0.00 0.00 49 1011.0
20260504151130 74 321 5.2 11.3 0.00 0.00 0.00 52 1011.5
20260504150633 73 25 4.3 13.0 0.00 0.00 0.00 53 1011.5
20260504150130 73 93 6.1 13.0 0.00 0.00 0.00 52 1011.5
20260504140616 69 1 3.5 7.8 0.00 0.00 0.00 61 1012.0
20260504140116 68 343 1.7 9.6 0.00 0.00 0.00 65 1012.0
20260504130610 62 0 1.7 3.5 0.00 0.00 0.00 75 1011.7
20260504130109 62 0 0.9 2.6 0.00 0.00 0.00 76 1011.6
20260504120109 59 0 0.0 1.7 0.00 0.00 0.00 78 1011.5
20260504110611 60 358 0.0 1.7 0.00 0.00 0.00 75 1011.1
20260504110108 60 0 0.0 1.7 0.00 0.00 0.00 75 1011.1